Tracking 31027 objects as of 19-Jul-2025
HD Live streaming from Space Station
objects crossing your sky now

ARABSAT 2B

Track ARABSAT 2B now!
ARABSAT 2B is classified as:


NORAD ID: 24652
Int'l Code: 1996-063A
Perigee: 36,016.9 km
Apogee: 36,055.9 km
Inclination: 9.9 °
Period: 1,448.5 minutes
Semi major axis: 42407 km
RCS: 3.8888 m2 (large)
Launch date: November 13, 1996
Source: Arab Satellite Communications Organization (AB)
Launch site: FRENCH GUIANA (FRGUI)

Second generation; radio and tv communications to Middle East.
Your satellite tracking list
FLOCK 3S 1
Track 1 satellite(s)




NASA's NSSDC Master Catalog

Two Line Element Set (TLE):
1 24652U 96063A   25199.27749631  .00000046  00000-0  00000-0 0  9998
2 24652   9.8624  51.8607 0004594  88.7054 287.3347  0.99412354105143
Source of the keplerian elements: AFSPC